Погода в Эльтоне

Погода в Эльтоне : погода сейчас, прогноз погоды и архив. Всё, что Вы хотите узнать о погоде в Эльтоне!

Хотите узнать прогноз погоды в Эльтоне? Тогда Вам сюда: Погода в Эльтоне

Поиск расширенной информации на нашем сайте:

Другие новости

Новости СМИ2

Главная страница сайта

Новости сайта

03.07.2017

Напоминаем, что на нашем специализированном сайте Метеоцентр.Азия вы можете получить высокодетализированные автоматические прогнозы погоды по пунктам России, СНГ и мира в авиационном формате (включающие направление и скорость ветра, видимость, явления погоды, количество и форму облачности, нижнюю и верхнюю границу облачности).


Погода в Эльтоне - сегодня

Время (UTC), дата Ветер
(°,м/с) 
Видим.   Явления Облачность Т
(°С)
Тd
(°С)
f(%) Тe
(°С)
Pmin
(гПа)
dP
(гПа)
Po
(мм)
O2
(г/м3)
Тmin Tmax R s Состояние
почвы
15 19.07.17 100 (В) 3{12}  20000 м    8/3 600 м кучево-дожд., средняя, верхняя 
[Cb cap|Ac trans|Ci]
+35 +3.1 14 +35  1008.7  -0.9  756  270    +37.2       
18 19.07.17 100 (В) 6-11{11}  20000 м    9/3 600 м кучево-дожд., средняя, верхняя 
[Cb cap|Ac trans|Ci]
+30.9 +6.4 22 +31  1009.2  0.6  756  273           
21 19.07.17 100 (В) 4{11}  20000 м  зарница  8/3 600 м кучево-дожд., средняя, верхняя 
[Cb cap|Ac trans|Ci]
+27.3 +7 28 +27  1008.7  -0.5  756  276           
00 20.07.17 090 (В) 20000 м  зарница  9/1 600 м кучево-дожд., средняя, верхняя 
[Cb cap|Ac trans|Ci]
+25 +6.6 31 +25  1007.6  -1.1  755  278           
03 20.07.17 040 (СВ) 20000 м    4/3 600 м средняя 
[Sc|Ac trans]
+24 +7 34 +24  1008.7  1.1  756  279  +22.8        сухая 
06 20.07.17 090 (В) 20000 м    8/1 1000 м средняя, верхняя 
[Cu hum|Ac trans|Ci]
+31.6 +7.7 23 +32  1008.5  -0.2  756  272           
09 20.07.17 130 (ЮВ) 6{12}  20000 м    9/0 средняя, верхняя 
[Ac cast|Ci]
+36.7 +4.1 13 +37  1007.1  -1.4  755  268           
12 20.07.17 140 (ЮВ) 5{12}  20000 м    9/0 верхняя 
[Ci]
+38 +4.6 13 +38  1005.2  -1.8  753  266           
15 20.07.17 100 (В) 3{13}  20000 м    9/0 средняя, верхняя 
[Ac trans|Ci]
+37.2 +5.3 14 +37  1004  -1.2  753  266    +39.1       
18 20.07.17 090 (В) 7-11{18}  20000 м  гроза без осадков{ливн. осадки}  10/6 300 м кучево-дожд., средняя 
[Cb cap|Ac trans]
+29.4 +10.8 32 +32  1006.9  2.9  755  273           
21 20.07.17 100 (В) 4{11}  20000 м  зарница{гроза}  4/3 600 м кучево-дожд., верхняя 
[Cb cap|Ci]
+25.1 +13.8 49 +32  1005.9  -1.1  754  275           
00 21.07.17 090 (В) 20000 м  {гроза}  9/1 600 м кучево-дожд., средняя, верхняя 
[Cb cap|Ac trans|Ci]
+23.2 +14.1 57 +30  1005.9  754  277           
03 21.07.17 120 (ЮВ) 20000 м    4/0 средняя, верхняя 
[Ac trans|Ci]
+24.4 +13.4 50 +30  1006.2  0.4  754  276  +22.4    0.8    сухая 
06 21.07.17 020 (С) 20000 м    8/5 600 м средняя 
[Sc|Ac trans]
+28.3 +11.9 36 +32  1007.1  0.9  755  273           
09 21.07.17 030 (СВ) 5{11}  20000 м    9/0 средняя, верхняя 
[Ac trans|Ci]
+32.4 +12.7 30 +37  1007.5  0.4  755  270           
12 21.07.17 340 (С) 8-11{13}  20000 м    9/0 средняя, верхняя 
[Ac trans|Ci]
+30 +14.1 38 +37  1009.3  1.8  757  272           
15 21.07.17 350 (С) 4{12}  20000 м    10/4 600 м средняя 
[Sc|Ac trans]
+29.2 +12.8 36 +34  1009.9  0.5  757  273    +33       
18 21.07.17 360 (С) 20000 м    8/0 средняя, верхняя 
[Ac trans|Ci]
+25.7 +14 48 +32  1011.1  1.2  758  276           
21 21.07.17 340 (С) 20000 м    4/0 верхняя 
[Ci]
+23.7 +14 55 +30  1012.1  759  278           
00 22.07.17 350 (С) 20000 м    ясно 
+20.3 +12.3 60 +24  1012.9  0.8  759  282           
03 22.07.17 350 (С) 20000 м    ясно 
+20.3 +11.8 58 +24  1013.9  0.9  760  283  +18.5        сухая 
06 22.07.17 360 (С) 20000 м    ясно 
+27.9 +10 33 +29  1014.3  0.5  760  276           
09 22.07.17 010 (С) 5{13}  20000 м    ясно 
+31.9 +0.9 14 +32  1013.8  -0.5  760  274           
12 22.07.17 010 (С) 20000 м    ясно 
+33.5 +2.3 14 +34  1013  -0.8  759  272           
15 22.07.17 030 (СВ) 20000 м    3/0 верхняя 
[Ci fib]
+32.6 +6 19 +33  1012.3  -0.7  759  272    +33.9       
Время (UTC), дата Ветер
(°,м/с) 
Видим.   Явления Облачность Т
(°С)
Тd
(°С)
f(%) Тe
(°С)
Pmin
(гПа)
dP
(гПа)
Po
(мм)
O2
(г/м3)
Тmin Tmax R s Состояние
почвы

Для получения пояснительной информации подведите курсор к названию столбца.

ПОГОДА в Эльтоне - архив

Всё, что Вы хотите узнать о погоде в Эльтоне - удобно и подробно!

Выберите нужную дату (начиная с 1 января 2015* года) и нажмите кнопку "Найти".
Будут отображены архивные сводки погоды по пункту Эльтон, начиная с указанной даты.


Отображать данные в формате CSV (для использования в таблицах Excel)


Внимание! Наш архив погоды предназначен исключительно для личного некоммерческого использования в познавательных целях. Если Вам необходимы официальные справки о состоянии погоды (для производственных, юридических, коммерческих и т.п. целей), обращайтесь в органы Росгидромета.

*Примечание: данная дата относится к архиву по метеостанциям СССР (Россия, СНГ, Балтия).
Архив по метеостанциям Зарубежной Европы и Азии (кроме Китая) хранится 10 дней, по другим регионам земного шара (Китай, Африка, Америка, Австралия, Океания) - 1 день.

Эльтон - район местоположения метеостанции


Название, широта, долгота, высота метеостанции:
Эльтон 49.1°ш. 46.9°д. 6 м над ур. моря [Российская Федерация]

Дополнительная информация

В oтличие oт бoльшинства пoгoдных сайтoв мы публикуем пoдрoбную метеoинфoрмацию в детальнoм прoфессиoнальнoм фoрмате.

Характеристики температуры и влажнoсти вoздуха измеряются на высoте 2 м в тени вдали oт зданий и деревьев.
Скoрoсть ветра измеряется на высoте 10 м (на урoвне рoста челoвека скoрoсть ветра ниже в 1.5-2 раза). Если метеoстанция нахoдится в гoрoде или в лесу, тo скoрoсть ветра занижена на 2-4 м/с пo сравнению с oткрытым местoм. Скoрoсть ветра над акватoриями крупных рек и oзёр, а также на вершинах хoлмoв на 2-5 м/с выше, чем в oбычных услoвиях.
Атмoсфернoе давление в разных тoчках местнoсти мoжет значительнo oтличаться oт давления на метеoстанции, в зависимoсти oт услoвий рельефа (при пoдъёме на 10 м давление пoнижается примернo на 1 мм рт.ст.).